TimeEST,TemperatureF,Dew PointF,Humidity,Sea Level PressureIn,VisibilityMPH,Wind Direction,Wind SpeedMPH,Gust SpeedMPH,PrecipitationIn,Events,Conditions,WindDirDegrees,DateUTC
12:55 AM,33.6,29.8,86,30.07,10.0,SW,15.0,-,N/A,,Overcast,220,2013-01-06 05:55:00
1:23 AM,33.8,30.2,87,30.06,10.0,SW,15.0,-,N/A,,Overcast,220,2013-01-06 06:23:00
1:32 AM,33.8,30.2,87,30.05,10.0,SW,16.1,-,N/A,,Overcast,220,2013-01-06 06:32:00
1:55 AM,34.2,29.7,84,30.04,10.0,SW,11.5,-,N/A,,Overcast,220,2013-01-06 06:55:00
2:55 AM,34.2,29.8,84,30.04,10.0,SW,13.8,-,N/A,,Overcast,220,2013-01-06 07:55:00
3:55 AM,34.3,30.4,85,30.02,10.0,SW,16.1,-,N/A,,Overcast,220,2013-01-06 08:55:00
4:55 AM,34.5,30.9,87,30.00,10.0,SW,15.0,-,N/A,,Overcast,230,2013-01-06 09:55:00
5:04 AM,33.8,30.2,87,30.00,10.0,SW,16.1,-,N/A,,Overcast,230,2013-01-06 10:04:00
5:07 AM,33.8,30.2,87,30.00,10.0,SW,15.0,-,N/A,,Overcast,230,2013-01-06 10:07:00
5:12 AM,33.8,30.2,87,30.00,10.0,SW,15.0,-,N/A,,Overcast,220,2013-01-06 10:12:00
5:55 AM,34.5,31.1,87,29.99,10.0,SW,13.8,-,N/A,,Overcast,220,2013-01-06 10:55:00
6:55 AM,34.2,31.1,89,29.99,10.0,SW,11.5,-,N/A,,Overcast,230,2013-01-06 11:55:00
7:37 AM,33.8,30.2,87,30.00,10.0,WSW,15.0,-,N/A,,Overcast,240,2013-01-06 12:37:00
7:55 AM,34.2,31.1,89,30.00,10.0,WSW,13.8,-,N/A,,Overcast,250,2013-01-06 12:55:00
8:38 AM,35.6,32.0,87,30.00,10.0,WSW,15.0,-,N/A,,Overcast,250,2013-01-06 13:38:00
8:55 AM,34.7,31.3,87,30.01,10.0,WSW,13.8,-,N/A,,Overcast,250,2013-01-06 13:55:00
8:56 AM,35.6,32.0,87,30.01,10.0,WSW,13.8,-,N/A,,Overcast,250,2013-01-06 13:56:00
9:14 AM,33.8,32.0,93,30.01,10.0,WSW,13.8,-,N/A,,Overcast,250,2013-01-06 14:14:00
9:21 AM,33.8,32.0,93,30.01,10.0,WSW,12.7,-,N/A,,Overcast,250,2013-01-06 14:21:00
9:33 AM,33.8,30.2,87,30.02,10.0,WNW,21.9,28.8,N/A,,Light Drizzle,290,2013-01-06 14:33:00
9:36 AM,33.8,30.2,87,30.02,10.0,WNW,18.4,28.8,N/A,,Light Drizzle,300,2013-01-06 14:36:00
9:39 AM,32.0,30.2,93,30.02,10.0,WNW,19.6,-,N/A,,Overcast,300,2013-01-06 14:39:00
9:40 AM,32.0,30.2,93,30.02,10.0,WNW,19.6,-,N/A,,Light Drizzle,290,2013-01-06 14:40:00
9:48 AM,32.0,30.2,93,30.03,10.0,West,20.7,-,N/A,,Light Freezing Drizzle,280,2013-01-06 14:48:00
9:55 AM,30.9,28.8,92,30.03,10.0,WNW,23.0,-,0.00,Rain-Snow,Freezing Rain,290,2013-01-06 14:55:00
10:30 AM,28.4,26.6,93,30.02,10.0,West,15.0,-,N/A,,Overcast,280,2013-01-06 15:30:00
10:55 AM,28.9,24.4,83,30.06,10.0,West,20.7,25.3,0.00,,Overcast,280,2013-01-06 15:55:00
11:55 AM,26.1,21.6,83,30.08,10.0,West,19.6,-,N/A,,Overcast,280,2013-01-06 16:55:00
12:55 PM,24.3,19.9,84,30.09,10.0,West,19.6,-,N/A,,Overcast,280,2013-01-06 17:55:00
1:55 PM,24.1,19.9,84,30.11,10.0,WNW,13.8,-,0.00,Snow,Light Snow,290,2013-01-06 18:55:00
2:41 PM,24.8,19.4,80,30.12,10.0,WNW,15.0,-,N/A,,Overcast,290,2013-01-06 19:41:00
2:55 PM,24.8,20.3,83,30.14,10.0,WNW,15.0,-,0.00,,Overcast,290,2013-01-06 19:55:00
3:55 PM,25.7,21.2,83,30.18,10.0,West,11.5,-,N/A,,Mostly Cloudy,280,2013-01-06 20:55:00
4:08 PM,26.6,21.2,80,30.19,10.0,WNW,11.5,-,N/A,,Overcast,290,2013-01-06 21:08:00
4:55 PM,26.2,22.1,84,30.21,10.0,West,13.8,-,N/A,,Overcast,270,2013-01-06 21:55:00
5:02 PM,26.6,21.2,80,30.21,10.0,West,12.7,-,N/A,,Overcast,270,2013-01-06 22:02:00
5:34 PM,26.6,23.0,86,30.22,10.0,West,15.0,-,N/A,,Overcast,270,2013-01-06 22:34:00
5:39 PM,26.6,23.0,86,30.23,10.0,West,13.8,-,N/A,,Overcast,270,2013-01-06 22:39:00
5:55 PM,26.8,23.4,87,30.24,10.0,West,15.0,-,N/A,,Overcast,270,2013-01-06 22:55:00
6:19 PM,26.6,23.0,86,30.25,10.0,West,13.8,-,N/A,,Overcast,270,2013-01-06 23:19:00
6:24 PM,26.6,23.0,86,30.26,10.0,West,13.8,-,N/A,,Overcast,270,2013-01-06 23:24:00
6:30 PM,26.6,23.0,86,30.26,10.0,West,13.8,-,N/A,,Overcast,270,2013-01-06 23:30:00
6:55 PM,27.3,23.9,87,30.28,10.0,West,13.8,-,N/A,,Overcast,260,2013-01-06 23:55:00
6:59 PM,26.6,24.8,93,30.28,10.0,West,11.5,-,N/A,,Overcast,260,2013-01-06 23:59:00
7:21 PM,26.6,24.8,93,30.29,10.0,West,10.4,-,N/A,,Overcast,270,2013-01-07 00:21:00
7:55 PM,28.0,24.6,87,30.29,10.0,West,17.3,-,N/A,,Overcast,270,2013-01-07 00:55:00
8:44 PM,28.4,24.8,86,30.31,10.0,West,17.3,-,N/A,,Overcast,260,2013-01-07 01:44:00
8:55 PM,28.4,24.8,86,30.32,10.0,West,15.0,-,N/A,,Overcast,270,2013-01-07 01:55:00
9:55 PM,28.2,24.6,86,30.34,10.0,West,12.7,-,N/A,,Overcast,270,2013-01-07 02:55:00
9:56 PM,28.4,24.8,86,30.34,10.0,West,11.5,-,N/A,,Overcast,270,2013-01-07 02:56:00
10:55 PM,28.0,24.4,86,30.36,10.0,West,8.1,-,N/A,,Overcast,280,2013-01-07 03:55:00
11:55 PM,26.4,23.4,88,30.36,10.0,West,9.2,-,N/A,,Overcast,260,2013-01-07 04:55:00